Theta_e
290 293 293 292 292 294 290 290 287 289 290 294 296 300 301 302 303 302 303 305 305 305 303 305 303 303 304 305 305 305 306 304 304 304 305 305 304 305 305 305 305 305 305 307
288 293 293 291 292 292 294 294 290 291 289 294 296 298 301 302 302 302 303 304 305 306 302 301 301 301 302 302 302 303 303 302 303 302 303 303 302 303 302 301 302 302 303 304
282 290 291 286 291 292 291 291 291 286 290 293 294 296 300 300 303 302 303 305 300 300 299 299 299 300 299 299 299 300 300 301 301 300 300 300 300 300 298 297 298 299 300 301
279 285 280 289 295 296 293 294 293 293 293 294 294 294 297 302 301 299 301 300 299 299 298 299 299 299 299 298 297 298 298 298 299 299 297 297 296 294 294 294 296 296 296 298
279 280 287 290 294 292 291 290 295 292 294 295 294 295 294 297 298 297 298 299 301 301 299 297 296 296 296 296 296 296 297 296 297 297 295 294 293 292 292 292 292 293 295 296
280 282 279 288 297 299 296 285 295 296 294 293 291 287 290 296 298 298 298 298 297 297 295 294 294 294 293 292 293 293 295 295 296 295 294 293 295 295 295 294 292 294 294 294
284 285 285 292 297 300 286 286 296 296 295 293 289 291 295 296 296 296 295 295 294 294 293 292 293 292 291 291 290 293 295 295 295 294 293 293 294 295 294 293 293 292 293 293
283 285 282 296 296 290 293 292 295 293 293 293 293 294 294 294 293 294 293 293 293 291 291 291 292 291 290 289 292 294 296 296 293 291 293 293 291 290 293 292 292 292 292 293
287 285 292 297 296 297 296 294 294 294 295 296 293 292 293 292 292 292 292 291 291 290 290 290 291 290 289 291 296 295 293 292 291 293 292 290 291 291 291 291 290 290 290 291
288 291 295 297 297 299 298 296 296 296 296 295 292 292 291 291 291 291 291 290 289 289 288 288 291 292 292 295 294 292 291 291 291 291 291 292 292 292 291 290 289 289 289 289
292 295 297 298 299 296 296 298 297 296 296 295 293 291 291 290 290 290 289 289 289 287 287 289 291 293 295 292 291 290 291 290 291 291 291 290 291 291 290 291 291 289 289 290
287 295 296 296 299 300 298 298 298 296 294 294 294 292 291 290 289 289 288 288 287 287 288 290 293 293 291 291 291 291 289 290 290 290 290 290 289 289 291 291 291 291 291 290
294 299 300 300 300 301 298 298 297 296 296 294 294 293 291 289 288 291 288 287 287 288 293 293 292 291 292 292 292 291 290 290 290 290 289 289 289 288 287 290 292 291 291 290
298 299 296 299 297 300 298 299 299 297 296 295 293 292 291 289 289 288 287 287 289 292 293 293 290 291 292 292 290 290 290 290 290 289 289 289 289 288 288 287 287 288 291 291
297 300 299 300 298 298 298 297 295 294 293 293 292 291 289 287 287 287 288 290 292 293 292 291 291 291 293 292 290 289 289 289 290 290 290 290 290 289 289 289 288 288 289 290
301 301 298 297 297 296 296 295 293 292 292 291 290 289 289 288 287 288 291 292 290 289 290 288 289 291 292 291 290 289 289 290 290 290 289 289 289 289 289 289 288 288 288 288
294 294 295 295 295 295 294 293 293 292 291 290 289 289 289 289 288 288 291 292 291 289 287 286 286 291 292 291 290 289 289 290 288 289 289 290 290 289 289 288 287 287 287 289
296 296 296 296 295 294 294 294 293 292 290 291 291 290 288 287 286 288 290 289 287 286 286 286 286 290 291 291 290 290 289 289 289 289 290 289 289 288 288 287 287 286 286 287
299 297 297 297 296 295 294 293 291 291 292 291 289 288 288 287 287 287 288 287 285 284 285 286 289 288 286 290 291 288 288 288 289 289 289 288 288 288 287 286 286 286 286 285
298 298 298 298 298 297 296 296 294 291 290 289 288 287 286 287 287 287 286 284 284 285 287 289 287 285 285 286 289 287 288 289 288 288 288 287 287 286 286 285 285 285 285 285
298 298 299 299 298 299 298 298 295 292 291 290 287 285 283 285 287 286 284 282 285 287 290 290 287 286 284 285 284 287 288 288 287 287 286 286 285 285 285 284 284 284 284 284
299 300 301 300 300 298 298 298 297 294 291 290 288 287 284 285 286 286 286 283 286 286 286 285 285 284 283 283 285 287 287 287 287 286 285 285 284 284 284 284 283 283 284 284
299 301 301 301 300 298 299 299 299 295 293 291 286 284 282 279 281 285 282 286 286 286 285 285 285 283 283 284 284 287 286 286 285 285 285 284 284 284 283 283 283 283 283 284
299 300 298 301 300 300 298 299 301 297 295 294 290 286 285 286 289 289 288 286 285 284 285 285 284 284 283 285 286 285 285 285 285 285 284 284 284 283 283 283 283 283 284 284
299 300 300 299 298 297 298 300 298 295 296 293 291 289 289 291 290 287 289 287 285 285 285 284 284 284 285 286 285 285 285 285 285 284 284 284 283 283 283 283 283 283 284 284
297 296 297 299 300 298 298 300 296 291 294 293 291 291 289 288 288 289 287 285 286 285 285 285 284 285 286 285 285 285 284 284 284 284 284 283 283 283 283 283 283 284 284 284
299 297 299 300 299 298 298 296 294 289 289 288 288 288 290 290 288 287 285 285 285 285 284 284 284 284 285 285 284 284 284 284 284 284 283 283 283 283 283 283 284 284 284 284
Wind_Speed
6 6 5 7 7 9 8 7 9 8 13 12 14 15 14 12 9 8 8 8 7 5 4 3 4 6 5 7 8 7 6 7 6 5 4 4 8 7 8 8 7 7 7 6
4 7 8 8 8 8 13 9 7 7 7 7 6 6 9 14 12 11 10 6 5 6 3 5 6 6 6 5 5 4 5 5 4 5 5 6 6 6 6 7 7 6 7 7
7 4 1 11 13 13 7 6 8 7 9 4 3 6 9 11 13 12 8 5 3 7 6 5 6 4 4 3 4 4 4 4 4 4 4 3 4 5 6 7 7 6 7 6
4 3 11 4 6 10 12 6 6 5 5 3 3 4 6 6 7 6 7 8 7 6 5 4 3 2 2 2 3 4 4 4 3 3 4 4 4 5 6 5 6 6 8 7
4 6 8 4 3 7 8 7 5 9 8 7 5 9 8 4 4 6 7 6 5 5 4 4 4 2 3 6 5 4 4 5 5 4 5 4 4 6 6 6 6 6 7 9
3 4 12 4 14 7 4 3 8 13 14 14 5 5 4 3 5 6 6 6 7 6 3 4 3 2 2 1 2 5 5 6 5 5 6 6 9 11 5 5 6 8 9 7
8 7 8 7 7 6 8 8 10 15 17 11 5 4 6 6 6 6 6 7 6 6 5 3 1 2 4 5 6 5 5 5 5 5 6 7 9 8 9 8 9 8 10 8
2 5 10 3 2 12 7 2 10 8 6 8 11 11 9 8 9 8 9 6 5 4 3 3 3 3 4 5 6 6 7 8 7 6 8 9 7 6 8 8 9 10 9 8
6 7 4 5 5 5 6 9 6 13 10 16 14 9 9 8 8 6 7 6 3 4 2 3 4 3 4 6 5 7 8 7 7 8 7 5 7 7 7 7 7 7 7 7
6 4 4 8 6 4 5 9 8 14 13 13 12 10 8 6 6 6 4 4 2 3 2 3 4 4 4 4 7 8 8 9 9 9 10 9 7 6 7 7 7 7 8 8
5 5 4 8 9 7 17 16 11 10 12 11 12 8 7 7 6 5 5 3 3 1 1 3 3 3 4 5 6 8 8 10 9 7 8 8 7 7 7 8 8 8 8 8
4 2 3 5 6 12 16 13 6 6 7 4 8 8 7 7 5 5 5 2 2 3 3 3 4 5 5 7 8 10 11 8 8 8 7 7 7 8 10 14 17 18 19 16
1 2 8 12 10 8 7 10 10 7 8 11 6 9 7 6 4 7 3 0 2 4 2 4 4 5 5 7 10 10 9 9 8 8 7 8 8 8 9 8 15 16 17 19
3 5 12 10 7 9 6 10 14 11 10 9 9 7 8 7 6 4 2 3 4 3 2 2 4 7 5 6 8 9 10 17 9 8 8 8 8 8 8 9 9 9 10 13
11 6 5 8 4 11 12 13 13 10 7 8 7 8 7 7 5 2 2 3 4 4 4 6 6 7 7 6 9 10 9 8 8 8 8 10 9 9 9 9 9 9 8 9
6 6 6 12 12 11 13 11 12 7 8 7 7 6 5 5 3 1 3 4 4 4 4 5 6 7 7 8 9 9 9 16 13 9 9 9 8 9 9 9 9 9 8 8
13 11 15 12 11 10 9 7 7 6 6 6 5 5 5 3 2 3 3 4 4 4 5 5 6 9 9 8 9 7 8 9 11 9 9 9 9 9 9 9 9 9 9 8
11 9 11 12 11 9 7 6 7 7 5 5 5 4 4 3 3 3 3 2 4 6 6 7 7 9 9 9 9 8 8 9 9 9 9 9 9 10 9 9 9 9 9 9
14 12 9 9 8 7 7 6 6 6 5 5 5 5 3 2 1 3 3 2 3 5 9 6 11 10 8 12 13 7 9 10 9 10 9 12 10 10 9 9 9 10 9 9
10 7 8 7 7 6 7 5 7 6 5 6 5 4 2 2 3 4 3 4 5 6 9 6 7 8 8 10 13 7 9 10 10 10 10 10 10 11 10 11 10 10 9 8
7 6 7 6 3 5 6 8 7 6 5 5 5 4 4 5 5 4 4 4 7 7 9 12 7 6 5 8 8 8 9 9 10 10 10 10 11 11 11 10 10 9 9 8
3 4 3 4 4 3 4 6 6 6 6 5 4 4 4 5 4 5 4 6 5 8 6 5 5 8 6 10 6 8 9 10 10 9 10 10 11 11 11 10 10 10 9 9
2 4 4 5 4 4 4 4 5 7 7 6 6 5 4 3 1 3 4 4 4 8 5 5 8 9 9 7 7 9 10 11 10 10 10 10 11 10 11 11 11 10 10 9
2 3 1 2 5 4 3 4 4 6 7 6 6 5 4 1 4 4 5 7 6 5 5 6 7 9 9 7 8 9 10 10 11 11 11 14 10 10 10 11 11 10 10 11
2 1 2 2 1 2 3 3 5 2 4 4 3 4 5 4 4 3 4 4 5 5 5 8 9 10 7 8 9 10 10 10 11 11 12 11 11 11 11 11 11 11 10 10
6 3 3 3 2 2 3 3 4 2 3 2 2 1 3 3 3 3 2 4 5 5 5 6 6 7 8 9 10 11 11 11 12 12 13 12 12 12 12 13 12 11 10 10
4 6 5 5 4 2 4 4 5 3 4 4 3 4 4 4 4 4 4 5 4 5 5 6 6 8 8 9 10 10 11 11 13 12 12 12 12 12 13 13 12 11 11 10
Wind_Direction
229 225 195 201 184 172 189 194 190 227 224 237 219 216 214 187 182 193 207 214 222 255 258 312 67 60 51 41 32 20 40 47 49 44 48 15 14 8 8 6 352 332 340 344
248 204 219 240 213 203 216 226 251 264 261 224 269 210 170 186 179 196 207 220 220 237 54 97 83 64 54 45 33 39 60 54 45 34 27 20 10 352 358 345 326 326 333 328
253 224 312 267 204 210 210 191 183 199 227 152 221 203 186 172 176 190 199 186 117 126 120 100 85 75 57 27 15 30 37 21 26 24 7 355 342 336 326 314 311 313 315 318
240 75 241 261 195 201 208 218 171 113 143 157 149 116 125 146 150 163 164 146 135 137 136 119 107 102 115 63 32 21 11 1 353 344 315 307 296 294 296 296 298 298 287 298
184 208 281 283 217 175 172 237 179 132 131 134 114 84 30 74 114 145 126 121 129 113 113 94 76 58 47 20 13 350 318 312 307 304 292 291 279 270 266 272 275 276 285 292
162 200 233 206 205 176 101 231 172 149 159 158 144 117 234 130 105 104 95 91 100 102 87 85 13 23 79 8 323 310 308 306 295 286 283 305 312 312 293 261 266 275 267 269
237 224 279 253 259 134 197 228 160 177 166 165 156 183 139 117 73 93 108 112 106 109 137 177 166 54 3 333 323 290 275 270 287 323 320 303 319 320 308 299 291 267 272 270
99 205 255 275 277 202 218 111 148 136 136 117 115 106 114 115 119 121 120 115 116 98 58 5 6 3 332 318 292 301 321 332 336 328 321 322 312 300 303 304 303 295 291 287
182 215 263 299 269 295 178 139 137 129 147 129 125 131 135 131 128 127 129 122 103 114 65 342 317 296 311 298 338 337 323 319 300 311 303 282 286 296 293 288 281 286 290 290
350 344 356 339 7 78 52 95 106 126 131 131 133 135 128 129 135 134 122 116 109 95 31 334 315 329 309 4 339 327 318 314 314 315 315 315 307 302 305 305 303 299 298 291
284 262 238 43 30 73 80 75 68 92 113 118 126 139 138 141 135 130 127 109 86 65 302 305 310 344 2 339 323 323 319 322 316 312 312 312 307 302 294 286 279 285 282 282
232 288 284 98 64 60 78 93 111 154 102 108 130 131 115 104 112 112 95 74 24 311 318 354 6 358 345 340 331 324 325 319 312 312 311 306 301 298 277 270 271 267 267 270
288 324 122 125 93 119 139 171 172 105 114 108 75 104 101 112 105 102 100 52 305 319 40 18 350 327 341 331 326 313 308 308 302 302 300 301 301 298 300 294 280 272 267 265
99 85 72 117 161 185 116 91 93 86 77 87 100 83 104 103 90 113 165 265 295 353 47 349 318 311 313 323 325 314 305 302 298 293 290 290 288 288 287 290 293 294 269 254
185 194 156 161 119 99 103 102 84 81 86 76 79 98 93 104 124 182 276 347 359 20 21 346 326 326 320 306 310 301 299 296 295 292 287 285 285 284 280 279 281 282 287 278
156 214 137 106 90 92 95 90 97 90 85 81 86 95 113 123 160 178 33 21 25 2 347 327 317 316 312 301 299 300 296 294 294 294 292 291 287 285 284 284 285 282 283 281
115 108 91 86 94 89 90 86 95 107 96 108 119 127 126 136 95 53 32 50 34 344 321 320 303 300 288 293 292 297 298 297 292 288 289 291 293 294 293 292 290 288 284 283
84 79 96 111 116 115 102 103 100 101 107 138 132 132 128 100 69 20 33 84 359 335 308 284 278 288 302 303 302 304 302 301 298 295 299 298 296 296 294 293 291 291 292 288
108 110 117 121 116 102 101 110 111 124 132 139 138 131 116 60 32 342 8 357 317 316 294 293 301 314 308 309 314 306 299 298 306 306 303 302 303 301 299 296 294 293 291 289
108 114 130 127 124 121 129 135 148 144 139 125 120 113 115 306 313 322 331 301 253 237 270 309 318 307 303 303 311 310 301 310 310 306 307 308 306 305 302 299 295 294 290 284
125 133 125 119 140 148 154 164 148 141 148 142 144 176 214 266 286 316 322 324 284 284 307 313 302 300 306 309 321 313 315 314 312 312 311 311 309 307 307 303 299 296 293 288
131 112 143 160 169 199 148 161 150 142 153 166 168 178 223 270 294 317 274 234 294 318 307 304 308 319 319 321 323 323 322 319 316 315 315 314 311 311 310 309 306 302 297 290
224 173 167 174 187 221 162 188 172 164 177 191 195 205 208 231 250 301 312 295 332 331 337 331 326 332 327 334 328 329 325 322 320 320 318 315 313 312 311 310 307 303 300 296
14 21 129 186 134 133 164 243 194 178 198 197 185 200 203 243 303 247 267 288 319 344 341 337 338 336 333 335 338 333 329 326 324 324 321 321 318 317 315 312 310 308 305 302
74 14 350 135 91 217 231 197 90 43 169 186 191 191 206 212 226 304 329 344 1 10 347 333 335 336 339 339 342 336 332 328 327 325 326 326 324 323 321 319 316 314 311 308
22 19 343 328 312 235 147 125 94 58 120 86 350 264 220 211 249 274 23 25 35 355 349 342 342 343 343 343 339 340 334 332 333 332 331 330 329 328 327 328 326 325 324 320
42 33 17 9 14 71 104 108 99 71 78 98 78 10 56 90 81 81 52 39 30 357 350 348 341 345 344 345 343 340 339 335 335 335 335 335 335 334 334 332 332 331 334 336